User: anonymous   Login
Location: Buchdorf
(48.7842°N, 10.8275°E)
Time: 13:30:59
(UTC+00:00)
Language:

Cosmos 968 Rocket - Orbit

View from above orbital plane
View from above orbital plane
View from above satellite
View from above satellite

Ground track
Ground track

The orbit data is extracted from the following two-line orbital elements,

1 10521U 77119B   20191.81344700 +.00000051 +00000-0 +24177-4 0  9995
2 10521 074.0284 356.5725 0020084 096.4901 263.8542 14.40787969233094
Epoch (UTC): 09 July 2020 19:31:21
Eccentricity: 0.0020084
inclination: 74.0284°
perigee height: 741 km
apogee height: 770 km
right ascension of ascending node: 356.5725°
argument of perigee: 96.4901°
revolutions per day: 14.40787969
mean anomaly at epoch: 263.8542°
orbit number at epoch: 23309

The dashed part of the orbit path shows where the satellite is in the earth's shadow,  

DLR